THOR ABLESTAR DEB, 351

Orbit data source: Space-Track

THOR ABLESTAR DEB, 351 is space debris in LEO originally from a launch on Thu, 29 Jun 1961 UTC launched from the Air Force Eastern Test Range (AFETR). Debris objects in space refer to the collection of defunct objects orbiting the Earth. Examples of debris include non-operational satellites, rocket bodies, and fragments generated from explosions, collisions, or faulty payload assembly.

Loading next visibility...
Identifier
351, 1961-015DR
Orbit
LEO
Last TLE update
23 hours ago
Origin
Manufacturer
Unknown
Mission
Spacecraft
Bus & Motor
Unknown
Mass
Unknown
Launch date (UTC)
1961-06-29 (64 years ago)
Launch vehicle
Unknown
Launch site
Air Force Eastern Test Range (AFETR)
Object type
Payload
Rocket body
Debris
Shape & HBR
Unknown
Radar Cross Section
Small (<0.1 m²)

Expand to show TLE details & history

TLE from 23 hours ago
0 THOR ABLESTAR DEB
1 00351U 61015DR  25133.43120450  .00007768  00000-0  10987-2 0  9990
2 00351  66.7412 139.8309 0033621 276.1578  83.5715 14.77218898318513
Epoch: 2025-05-13T10:20Z
Definitive object data (Epoch: 2025-05-13T10:20:56.068Z)
Latitude
0.00001°
Longitude
113.16725°
Altitude
637.71 km
Speed
7.541 km/s
True Right ascension
09h 19m 19s
True Declination
0° 00' 00"
Sunlit
Object was in daylight at TLE epoch
Visualization TLE readout
Latitude
-12.25933°
Longitude
105.17557°
Altitude
635.034 km
Speed
7.545 km/s
Apparent Right ascension
07h 26m 39s
Apparent Declination
-27° 22' 03"
Sunlit
Object is in daylight
Visualization observer readout
Local Sidereal Time
17:31:14
Azimuth
288.875° WNW
Elevation
-63.069°
Doppler factor
1
Orbital elements
Apogee altitude
660.034 km
Perigee altitude
612.867 km
Semi-major axis
7,014.588 km
Eccentricity
0.0033621
Inclination
66.7412°
RAAN
139.8309°
Arg. of periapsis
276.1578°
True anomaly
83.95452°
Mean anomaly
83.5715°
Eccentric anomaly
83.76299°
Mean motion
3.69437 °/min
BSTAR
0.0010987
Orbital period
97.45 mins
Loading maneuver chart data...
Loading SW <> Apogee altitude chart data...

THOR ABLESTAR DEB Visibility forecast

Observer location: undefined°, undefined°

Span
Click to sort rows by Start time (UTC) header in descending order
Start Az.
Max El. time (UTC)
Max El. Az.
Max El.
End time (UTC)
End Az.
4 mins2025-05-14 09:37:15.858Z11.876° NNE2025-05-14 09:39:15.858Z37.596° NE13.899°2025-05-14 09:41:15.858Z65.829° ENE
7 mins2025-05-14 11:17:15.858Z326.985° NNW2025-05-14 11:20:15.858Z267.771° W44.359°2025-05-14 11:24:15.858Z157.468° SSE
7 mins2025-05-15 01:29:15.858Z186.707° SSW2025-05-15 01:32:15.858Z116.232° SE39.636°2025-05-15 01:36:15.858Z39.166° NE
4 mins2025-05-15 03:11:15.858Z289.161° WNW2025-05-15 03:12:15.858Z304.878° NW17.419°2025-05-15 03:15:15.858Z349.99° N
|